When you browse on this site, cookies collect data to enhance your experience and personalize the content and advertising you see.
Visit our Privacy Policy to learn more. By continuing to use the site, you agree to this use of cookies and data.
  • In Czech Republic
  • List of Countries
  • For 7 days
  • Water Temperature
  • Satellite Maps
  • Weather Map
  • Weather Widgets
  • user-avatar
    Login

    Hourly Weather Wayne

    Today, 17 February, Sunday

    Time Temperature Precipitation Wind Pressure Humidity
    00:00 -4°C° 0 mm 3 mps 754 mmHg 63%
    01:00 -4°C° 0 mm 2 mps 754 mmHg 64%
    02:00 -5°C° 0 mm 3 mps 755 mmHg 63%
    03:00 -5°C° 0 mm 3 mps 755 mmHg 62%
    04:00 -5°C° 0 mm 3 mps 755 mmHg 62%
    05:00 -4°C° 0 mm 2 mps 755 mmHg 61%
    06:00 -4°C° 0 mm 2 mps 755 mmHg 61%
    07:00 -4°C° 0 mm 2 mps 756 mmHg 60%
    08:00 -1°C° 0 mm 1 mps 756 mmHg 54%
    09:00 0°C° 0 mm 1 mps 756 mmHg 48%
    10:00 +1°C° 0 mm 1 mps 756 mmHg 43%
    11:00 +2°C° 0 mm 1 mps 756 mmHg 40%
    12:00 +3°C° 0 mm 1 mps 756 mmHg 37%
    13:00 +3°C° 0 mm 1 mps 756 mmHg 33%
    14:00 +3°C° 0 mm 1 mps 755 mmHg 34%
    15:00 +4°C° 0 mm 1 mps 755 mmHg 35%
    16:00 +3°C° 0 mm 2 mps 754 mmHg 35%
    17:00 +2°C° 0 mm 2 mps 754 mmHg 41%
    18:00 +1°C° 0 mm 2 mps 754 mmHg 47%
    19:00 -1°C° 0 mm 2 mps 754 mmHg 53%
    20:00 -1°C° 0.4 mm 2 mps 753 mmHg 63%
    21:00 -1°C° 0.4 mm 2 mps 753 mmHg 72%
    22:00 -1°C° 0.4 mm 2 mps 753 mmHg 82%
    23:00 -1°C° 0.3 mm 2 mps 752 mmHg 84%

    Tomorrow, 18 February, Monday

    Time Temperature Precipitation Wind Pressure Humidity
    00:00 +1°C° 0.3 mm 2 mps 752 mmHg 86%
    01:00 0°C° 0.3 mm 3 mps 751 mmHg 88%
    02:00 +1°C° 0.7 mm 2 mps 750 mmHg 91%
    03:00 +1°C° 0.7 mm 2 mps 749 mmHg 93%
    04:00 +2°C° 0.7 mm 1 mps 749 mmHg 96%
    05:00 +2°C° 0.8 mm 1 mps 748 mmHg 97%
    06:00 +2°C° 0.8 mm 1 mps 748 mmHg 98%
    07:00 +3°C° 0.8 mm 1 mps 748 mmHg 98%
    08:00 +3°C° 0 mm 1 mps 748 mmHg 95%
    09:00 +4°C° 0 mm 1 mps 747 mmHg 91%
    10:00 +5°C° 0 mm 1 mps 747 mmHg 88%
    11:00 +5°C° 0 mm 2 mps 748 mmHg 84%
    12:00 +5°C° 0 mm 3 mps 748 mmHg 79%
    13:00 +5°C° 0 mm 4 mps 748 mmHg 75%
    14:00 +5°C° 0 mm 5 mps 749 mmHg 71%
    15:00 +3°C° 0 mm 6 mps 750 mmHg 67%
    16:00 +2°C° 0 mm 7 mps 751 mmHg 63%
    17:00 -1°C° 0 mm 7 mps 752 mmHg 63%
    18:00 -2°C° 0 mm 6 mps 754 mmHg 63%
    19:00 -4°C° 0 mm 6 mps 755 mmHg 64%
    20:00 -5°C° 0 mm 6 mps 757 mmHg 63%
    21:00 -6°C° 0 mm 6 mps 758 mmHg 62%
    22:00 -6°C° 0 mm 6 mps 759 mmHg 62%
    23:00 -8°C° 0 mm 6 mps 760 mmHg 60%

    Day after tomorrow, 19 February, Tuesday

    Time Temperature Precipitation Wind Pressure Humidity
    00:00 -7°C° 0 mm 5 mps 760 mmHg 58%
    01:00 -8°C° 0 mm 5 mps 761 mmHg 57%
    02:00 -8°C° 0 mm 5 mps 762 mmHg 56%
    03:00 -8°C° 0 mm 5 mps 762 mmHg 56%
    04:00 -8°C° 0 mm 5 mps 763 mmHg 55%
    05:00 -8°C° 0 mm 5 mps 763 mmHg 55%
    06:00 -9°C° 0 mm 4 mps 764 mmHg 55%
    07:00 -9°C° 0 mm 4 mps 765 mmHg 55%
    08:00 -8°C° 0 mm 4 mps 765 mmHg 51%
    09:00 -7°C° 0 mm 4 mps 766 mmHg 48%
    10:00 -5°C° 0 mm 4 mps 766 mmHg 44%
    11:00 -4°C° 0 mm 4 mps 766 mmHg 42%
    12:00 -3°C° 0 mm 4 mps 766 mmHg 40%
    13:00 -2°C° 0 mm 4 mps 766 mmHg 37%
    14:00 -2°C° 0 mm 4 mps 766 mmHg 38%
    15:00 -2°C° 0 mm 4 mps 766 mmHg 38%
    16:00 -1°C° 0 mm 3 mps 766 mmHg 39%
    17:00 -2°C° 0 mm 3 mps 766 mmHg 42%
    18:00 -4°C° 0 mm 3 mps 767 mmHg 46%
    19:00 -4°C° 0 mm 3 mps 767 mmHg 49%
    20:00 -5°C° 0 mm 3 mps 767 mmHg 50%
    21:00 -5°C° 0 mm 3 mps 767 mmHg 51%
    22:00 -5°C° 0 mm 3 mps 768 mmHg 51%
    23:00 -5°C° 0 mm 3 mps 768 mmHg 51%

    20 February, Wednesday

    Time Temperature Precipitation Wind Pressure Humidity
    00:00 -5°C° 0 mm 2 mps 768 mmHg 51%
    01:00 -5°C° 0 mm 2 mps 768 mmHg 51%
    02:00 -5°C° 0 mm 2 mps 768 mmHg 51%
    03:00 -3°C° 0 mm 1 mps 768 mmHg 51%
    04:00 -3°C° 0 mm 1 mps 768 mmHg 51%
    05:00 -3°C° 0 mm 1 mps 767 mmHg 51%
    06:00 -3°C° 0 mm 1 mps 767 mmHg 51%
    07:00 -2°C° 0 mm 1 mps 767 mmHg 51%
    08:00 -2°C° 0 mm 1 mps 767 mmHg 49%
    09:00 -1°C° 0 mm 1 mps 767 mmHg 47%
    10:00 0°C° 0 mm 1 mps 768 mmHg 44%
    11:00 -2°C° 0 mm 2 mps 767 mmHg 45%
    12:00 -2°C° 0 mm 3 mps 766 mmHg 46%
    13:00 -1°C° 0 mm 3 mps 765 mmHg 47%
    14:00 -2°C° 0.1 mm 3 mps 765 mmHg 52%
    15:00 -2°C° 0.1 mm 3 mps 764 mmHg 58%
    16:00 -2°C° 0.1 mm 3 mps 763 mmHg 64%
    17:00 -2°C° 0.2 mm 3 mps 763 mmHg 69%
    18:00 -3°C° 0.2 mm 4 mps 762 mmHg 74%
    19:00 -3°C° 0.2 mm 4 mps 762 mmHg 79%
    20:00 -2°C° 0.3 mm 4 mps 761 mmHg 83%
    21:00 -2°C° 0.3 mm 4 mps 760 mmHg 87%
    22:00 -1°C° 0.3 mm 4 mps 759 mmHg 91%
    23:00 0°C° 0.4 mm 3 mps 758 mmHg 93%

    21 February, Thursday

    Time Temperature Precipitation Wind Pressure Humidity
    00:00 +1°C° 0.4 mm 3 mps 757 mmHg 95%
    01:00 +1°C° 0.4 mm 3 mps 755 mmHg 97%
    02:00 +2°C° 0.6 mm 2 mps 754 mmHg 98%
    03:00 +3°C° 0.6 mm 1 mps 753 mmHg 98%
    04:00 +3°C° 0.6 mm 0 mps 752 mmHg 99%
    05:00 +4°C° 0.1 mm 1 mps 752 mmHg 98%
    06:00 +4°C° 0.1 mm 1 mps 752 mmHg 98%
    07:00 +3°C° 0.1 mm 2 mps 751 mmHg 97%
    08:00 +5°C° 0 mm 2 mps 752 mmHg 91%
    09:00 +7°C° 0 mm 3 mps 752 mmHg 84%
    10:00 +8°C° 0 mm 4 mps 752 mmHg 77%
    11:00 +10°C° 0 mm 4 mps 752 mmHg 71%
    12:00 +10°C° 0 mm 4 mps 752 mmHg 65%
    13:00 +10°C° 0 mm 5 mps 753 mmHg 59%
    14:00 +10°C° 0 mm 4 mps 753 mmHg 60%
    15:00 +10°C° 0 mm 4 mps 753 mmHg 61%
    16:00 +8°C° 0 mm 4 mps 754 mmHg 63%
    17:00 +6°C° 0 mm 4 mps 755 mmHg 65%
    18:00 +5°C° 0 mm 4 mps 755 mmHg 68%
    19:00 +3°C° 0 mm 4 mps 756 mmHg 70%
    20:00 +3°C° 0 mm 4 mps 757 mmHg 70%
    21:00 +1°C° 0 mm 5 mps 757 mmHg 69%
    22:00 +1°C° 0 mm 5 mps 758 mmHg 68%
    23:00 0°C° 0.1 mm 4 mps 758 mmHg 70%

    22 February, Friday

    Time Temperature Precipitation Wind Pressure Humidity
    00:00 +1°C° 0.1 mm 3 mps 758 mmHg 73%
    01:00 +1°C° 0.1 mm 2 mps 758 mmHg 75%
    02:00 +2°C° 0.1 mm 1 mps 758 mmHg 76%
    03:00 +2°C° 0.1 mm 1 mps 758 mmHg 77%
    04:00 +2°C° 0.1 mm 1 mps 758 mmHg 79%
    05:00 +2°C° 0.1 mm 1 mps 759 mmHg 79%
    06:00 +2°C° 0.1 mm 1 mps 759 mmHg 80%
    07:00 +2°C° 0.1 mm 1 mps 759 mmHg 80%
    08:00 +3°C° 0.1 mm 1 mps 759 mmHg 77%
    09:00 +3°C° 0.1 mm 0 mps 759 mmHg 74%
    10:00 +4°C° 0.1 mm 0 mps 759 mmHg 71%
    11:00 +4°C° 0 mm 0 mps 759 mmHg 70%
    12:00 +4°C° 0 mm 0 mps 759 mmHg 70%
    13:00 +4°C° 0 mm 0 mps 759 mmHg 69%
    14:00 +4°C° 0 mm 0 mps 759 mmHg 68%
    15:00 +5°C° 0 mm 0 mps 758 mmHg 67%
    16:00 +5°C° 0 mm 0 mps 758 mmHg 66%
    17:00 +4°C° 0 mm 0 mps 759 mmHg 70%
    18:00 +3°C° 0 mm 0 mps 759 mmHg 73%
    19:00 +4°C° 0 mm 1 mps 759 mmHg 77%
    20:00 +3°C° 0 mm 1 mps 759 mmHg 79%
    21:00 +3°C° 0 mm 1 mps 760 mmHg 82%
    22:00 +2°C° 0 mm 1 mps 760 mmHg 85%
    23:00 +2°C° 0 mm 1 mps 760 mmHg 86%
    Show more